Terminal Aerodrome Forecast
Issued by NWS

Home | Current Version | Previous Version | Text Only | Print | Product List | Glossary On
Versions: 1 2 3 4 5 6 7 8 9 10 11 12 13 14 15 16 17 18
000
FTUS43 KMQT 261500 AAB
TAFCMX
TAF AMD
KCMX 261513Z 2615/2712 28012KT 3SM BR SCT004 BKN015
     FM261700 30012KT P6SM SCT025
     FM270100 VRB03KT P6SM SCT050 BKN100
     FM270500 VRB04KT 5SM -SHRA BR BKN035
     FM270900 10007KT 4SM -SHRA BR OVC015=

USA.gov is the U.S. government's official web portal to all federal, state and local government web resources and services.